Orbital Elements at Epoch 2459200.5 (2020-Dec-17.0) TDB
Reference: JPL 19 (heliocentric ecliptic J2000)
Element | Value | Uncertainty (1-sigma) | Units |
e | .1327162320960704 | 4.0338e-08 | |
a | 2.385205750733416 | 1.0079e-08 | au |
q | 2.068650230722198 | 9.6076e-08 | au |
i | 1.544064965267186 | 3.3158e-06 | deg |
node | 298.496936842201 | 0.00020508 | deg |
peri | 211.5753702536348 | 0.00020623 | deg |
M | 244.3083102053459 | 2.4378e-05 | deg |
tp | 2459632.901171760093 (2022-Feb-22.40117176) | 9.2935e-05 | TDB |
period | 1345.510832367725 3.68 | 8.5281e-06 2.335e-08 | d yr |
n | .2675563743819886 | 1.6958e-09 | deg/d |
Q | 2.701761270744634 | 1.1416e-08 | au |
|
| | Orbit Determination Parameters
Additional Information
|